Regional Weather Roundup
Issued by NWS

Home | Current Version | Previous Version | Graphics & Text | Print | Product List | Glossary On
Versions: 1 2 3 4 5 6 7 8 9 10 11 12 13 14 15 16 17 18 19 20 21 22 23 24 25 26 27 28 29 30 31 32 33 34 35 36 37 38 39 40 41 42 43 44 45 46 47 48 49 50
000
ASUS45 KBOU 271407
RWRCO

WEATHER ROUNDUP FOR COLORADO
NATIONAL WEATHER SERVICE DENVER/BOULDER CO
700 AM MST FRI FEB 27 2015

NOTE: "FAIR" INDICATES FEW OR NO CLOUDS BELOW 12000 FEET WITH NO
SIGNIFICANT WEATHER AND/OR OBSTRUCTIONS TO VISIBILITY.

COZ001>005-013-030-031-271500-
...NORTHWEST COLORADO...

CITY           SKY/WX    TMP DP  RH WIND       PRES   REMARKS
CRAIG          CLOUDY    11   7  84 SW3       29.88S
HAYDEN         CLOUDY    12   7  79 W6        29.85R WCI   3
MEEKER         CLOUDY    10   6  84 CALM      29.85R
MOUNT WERNER   NOT AVBL
STEAMBOAT SPGS NOT AVBL
WALDEN         CLOUDY    -6 -11  77 CALM      29.79S VSB 1/4
$$

COZ006>008-011-271500-
...WEST CENTRAL VALLEYS...

CITY           SKY/WX    TMP DP  RH WIND       PRES   REMARKS
GRAND JUNCTION FLURRIES  30  28  92 SE3       29.83R
MONTROSE       CLOUDY    22  16  78 CALM      29.83S
EAGLE          LGT SNOW  23  21  93 CALM      29.83S FOG
RIFLE          CLOUDY    25  16  68 CALM      29.83R
DELTA          LGT SNOW  29  27  92 CALM      29.84S VSB 1
NUCLA          CLOUDY    28  27  93 E6        29.85F WCI  22
$$

COZ017>023-064>068-271500-
...SOUTHWEST COLORADO...

CITY           SKY/WX    TMP DP  RH WIND       PRES   REMARKS
DURANGO        CLOUDY    23  21  92 CALM      29.84R
CORTEZ         CLOUDY    28  27  96 CALM      29.85S
PAGOSA SPRINGS CLOUDY    25  25  99 SW5       29.82S WCI  20
TELLURIDE      FLURRIES  19  16  89 CALM      29.78S
WOLF CREEK PAS SNOW       9   7  92 SW17G28   29.75S VSB 1/2 WCI -10
$$

COZ009-010-012-014-032>034-037-058>063-271500-
...CENTRAL COLORADO...

CITY           SKY/WX    TMP DP  RH WIND       PRES   REMARKS
ASPEN          LGT SNOW  19  16  88 S7        29.75R FOG     WCI  10
BUENA VISTA    LGT SNOW  -4  -9  79 CALM      29.86F
COPPER MTN     NOT AVBL
BERTHOUD PASS  FAIR      -4  -9  77 NW18      29.61F WCI -26
COTTONWOOD PAS CLOUDY     1  -4  78 CALM      29.73S
GUNNISON       MOCLDY    16  10  79 S5        29.81S WCI   9
KREMMLING      PTCLDY     3  -2  78 N3        29.83S
LEADVILLE      LGT SNOW  -3  -8  79 CALM      29.71F
SALIDA         CLOUDY     4   0  84 SE7       29.97S WCI  -8
SUNLIGHT       LGT SNOW N/A N/A N/A CALM        N/A
WILKERSON PASS PTCLDY     3   0  85 W8        29.69S WCI -10
$$

COZ069>075-271500-
...SAN LUIS VALLEY/SANGRE DE CRISTO MOUNTAINS...

CITY           SKY/WX    TMP DP  RH WIND       PRES   REMARKS
ALAMOSA        CLOUDY    15  10  80 SW3       29.83R
LA VETA PASS   HVY SNOW   5   1  85 MISG      29.74S VSB 1/4
SAGUACHE       NOT AVBL
$$

COZ035-036-038>040-271500-
...NORTHERN COLORADO FRONT RANGE...

CITY           SKY/WX    TMP DP  RH WIND       PRES   REMARKS
DENVER INTL AP MOCLDY    -6 -10  83 S12       30.00F WCI -25
DMNS CITY PARK   N/A     10   7  90 NE1       30.01S
AURORA         PTCLDY     0  -5  79 S8        29.99F WCI -14
FRONT RANGE AP NOT AVBL
ERIE MUNI ARPT NOT AVBL
BOULDER MUN AP NOT AVBL
CENTENNIAL     MOCLDY     1  -4  79 S7        29.97S WCI -12
BROOMFIELD     FLURRIES   7   3  85 CALM      29.99S
FORT COLLINS   CLOUDY     3   1  92 CALM      30.04S VSB 1/4
LONGMONT       NOT AVBL
$$

COZ041-046-047-076>085-087-088-271500-
...PIKES PEAK/PALMER DIVIDE AND SOUTHERN FOOTHILLS...

CITY           SKY/WX    TMP DP  RH WIND       PRES   REMARKS
COLO. SPRINGS  LGT SNOW   6   3  87 SE6       30.00S FOG     WCI  -4
A. F. ACADEMY  CLOUDY     4   0  83 S10       29.95S WCI -11
ELLICOTT       NOT AVBL
FALCON         NOT AVBL
FORT CARSON    LGT SNOW   6   3  87 E5        30.00F FOG     WCI  -2
LIMON          LGT SNOW   6   3  87 SE22      30.06S VSB 1   WCI -15
MONUMENT HILL  LGT SNOW   3   0  85 S25       29.88F VSB 3/4 WCI -20
TRINIDAD       CLOUDY     5   2  87 N7        30.01S WCI  -7
$$

COZ042>045-048>051-090-091-271500-
...NORTHEAST COLORADO...

CITY           SKY/WX    TMP DP  RH WIND       PRES   REMARKS
GREELEY ARPT   PTCLDY     3  -6  66 SE5       30.06S WCI  -6
AKRON          CLOUDY     5   3  91 SE13      30.12S FOG     WCI -12
BURLINGTON     LGT SNOW  10   5  80 SE18      30.20S VSB 1   WCI  -8
WRAY           LGT SNOW  11   8  85 E10       30.25S WCI  -2
STERLING       NOT AVBL
HOLYOKE        NOT AVBL
FORT MORGAN    CLOUDY     9   6  87 E9        30.12F WCI  -5
$$

COZ086-089-092>099-271500-
...SOUTHEAST COLORADO...

CITY           SKY/WX    TMP DP  RH WIND       PRES   REMARKS
PUEBLO         LGT SNOW  11   8  88 NE6       30.08F FOG     WCI   1
LA JUNTA       LGT SNOW  13   9  84 SE18      30.15S FOG     WCI  -4
LAMAR          LGT SNOW  12   7  80 SE15      30.23R WCI  -4
SPRINGFIELD      N/A      8   5  87 SE16      30.19R WCI -10
$$



USA.gov is the U.S. government's official web portal to all federal, state and local government web resources and services.